Weather observations for the past three days for
Baraboo Wisconsin Dells Airport
Imperial (Metric)
Date Time (cdt) Wind (mph) Vis. (mi.) Weather Sky Cond. Temperature (ºF) Relative Humidity Wind Chill (°F) Heat Index (°F) Pressure Precipitation (in)
Air Dwpt 6 hour altimeter (in) sea level (mb) 1 hr 3 hr 6 hr
Max. Min.
24 07:55 S 3 10.00 Fair CLR 68.7 64.6 87% 29.97 0.0
24 07:35 Calm 10.00 Fair CLR 66.4 65.5 97% 29.96 0.0
24 07:15 Calm 10.00 Fair CLR 64.8 64.6 99% 29.97 0.0
24 06:55 Calm 10.00 Fair CLR 63.5 63.5 64 59 100% 29.97 0.0
24 06:35 Calm 10.00 Fair CLR 61.9 61.9 100% 29.97 0.0
24 06:15 Calm 10.00 Fair CLR 60.3 60.3 100% 29.96 0.0
24 05:55 Calm 7.00 Fair CLR 59.4 59.4 100% 29.95 0.0
24 05:35 Calm 10.00 Fair CLR 59.4 59.4 100% 29.95 0.0
24 05:15 Calm 10.00 Fair CLR 59.2 59 99% 29.95 0.0
24 04:55 Calm 10.00 Fair CLR 60.1 59.9 99% 29.94 0.0
24 04:35 Calm 10.00 Fair CLR 60.1 59.9 99% 29.94 0.0
24 04:15 Calm 7.00 Fair CLR 61.3 61.2 99% 29.94 0.0
24 03:55 Calm 10.00 Fair CLR 60.3 60.1 99% 29.93 0.0
24 03:35 Calm 10.00 Fair CLR 60.6 60.3 99% 29.93 0.0
24 03:15 Calm 10.00 Fair CLR 61.2 60.8 99% 29.93 0.0
24 02:55 Calm 10.00 Fair CLR 61.7 61.5 99% 29.93 0.0
24 02:35 Calm 10.00 Fair CLR 62.6 61.9 98% 29.92 0.0
24 02:15 Calm 10.00 Fair CLR 62.4 62.1 99% 29.92 0.0
24 01:55 Calm 10.00 Fair CLR 62.6 62.1 98% 29.92 0.0
24 01:35 Calm 10.00 Fair CLR 63.3 63.1 99% 29.92 0.0
24 01:15 Calm 10.00 Fair CLR 63.5 63 98% 29.92 0.0
24 00:55 Calm 10.00 Fair CLR 64.2 63.3 77 64.2 97% 29.92 0.0
24 00:35 Calm 10.00 Partly Cloudy SCT055 64.4 63.7 98% 29.92 0.0
24 00:15 Calm 10.00 Mostly Cloudy SCT055 BKN065 65.3 64.4 97% 29.92 0.0
23 23:55 Calm 10.00 Mostly Cloudy BKN065 65.3 64.4 97% 29.91 0.0
23 23:35 Calm 10.00 Mostly Cloudy BKN065 66 64.8 96% 29.91 0.0
23 23:15 Calm 10.00 Mostly Cloudy BKN075 BKN090 66.2 64.8 95% 29.91 0.0
23 22:55 Calm 10.00 Mostly Cloudy SCT075 BKN100 66.6 64.6 93% 29.91 0.0
23 22:35 Calm 10.00 Mostly Cloudy BKN100 66.7 64.6 93% 29.9 0.0
23 22:15 Calm 10.00 Fair CLR 67.5 64.6 91% 29.9 0.0
23 21:55 Calm 10.00 Fair CLR 69.4 63.9 83% 29.89 0.0
23 21:35 Calm 10.00 Partly Cloudy SCT100 71.2 63.7 77% 29.89 0.0
23 21:15 NW 3 10.00 Mostly Cloudy BKN070 BKN100 72.3 63.5 74% 29.88 0.0
23 20:55 SW 6 10.00 Overcast BKN085 OVC090 72.3 65.1 78% 29.88 0.0
23 20:35 Calm 10.00 Overcast OVC085 72.7 65.5 78% 29.87 0.0
23 20:15 Calm 10.00 Overcast OVC085 73.8 64.4 73% 29.87 0.0
23 19:35 W 5 10.00 Partly Cloudy SCT085 76.1 62.4 63% 78 29.87 0.0
23 18:55 W 7 10.00 Fair CLR 77 61.7 78.6 69.1 59% 79 29.87 0.0
23 18:35 W 8 10.00 Fair CLR 77.4 61.5 58% 79 29.86 0.0
23 18:15 W 13 G 17 10.00 Partly Cloudy SCT055 77.7 62.1 59% 79 29.86 0.0
23 17:55 NW 8 10.00 Mostly Cloudy SCT038 BKN055 78.3 64 62% 80 29.87 0.0
23 17:35 NW 7 10.00 Overcast BKN038 BKN049 OVC055 78.1 63 60% 80 29.87 0.0
23 17:15 NW 6 10.00 Mostly Cloudy BKN038 BKN050 BKN065 77.9 63.7 62% 80 29.87 0.0
23 16:55 NW 7 10.00 Mostly Cloudy BKN035 BKN041 BKN050 77.2 63.7 63% 79 29.87 0.0
23 16:35 W 9 10.00 Overcast SCT032 BKN039 OVC046 75.4 62.8 65% 77 29.87 0.0
23 16:15 W 8 10.00 Mostly Cloudy BKN032 BKN038 76.5 63 63% 78 29.87 0.0
23 15:55 NW 7 10.00 Partly Cloudy SCT034 76.1 63 64% 78 29.87 0.0
23 15:35 W 6 10.00 Partly Cloudy SCT030 75.9 63.9 66% 78 29.87 0.0
23 15:15 NW 9 10.00 Partly Cloudy SCT025 74.3 62.6 67% 29.87 0.0
23 14:55 NW 8 10.00 Mostly Cloudy BKN023 73.4 63 70% 29.87 0.0
23 14:35 NW 8 10.00 Mostly Cloudy BKN023 72.9 62.8 71% 29.87 0.0
23 14:15 W 9 10.00 Mostly Cloudy BKN021 BKN027 72.3 62.6 72% 29.88 0.0
23 13:55 NW 10 10.00 Mostly Cloudy BKN019 BKN026 71.2 61.7 72% 29.88 0.0
23 13:35 W 9 10.00 Overcast OVC019 70.5 63 77% 29.88 0.0
23 13:15 W 8 10.00 Overcast OVC019 70.2 63.1 79% 29.87 0.0
23 12:55 NW 6 10.00 Overcast OVC015 68.5 62.1 68.5 61.9 80% 29.88 0.0
23 12:35 NW 8 10.00 Overcast OVC015 67.5 61.3 81% 29.88 0.0
23 12:15 NW 8 10.00 Overcast OVC015 67.8 61.3 80% 29.87 0.0
23 11:55 NW 9 10.00 Overcast OVC015 67.1 61.5 82% 29.87 0.0
23 11:35 NW 9 10.00 Overcast OVC015 67.1 61 81% 29.87 0.0
23 11:15 NW 6 10.00 Overcast OVC013 67.3 61.2 81% 29.87 0.0
23 10:55 NW 10 G 16 10.00 Overcast OVC013 65.7 60.1 82% 29.86 0.0
23 10:35 NW 10 G 18 10.00 Overcast OVC011 65.5 60.8 85% 29.85 0.0
23 10:15 NW 9 G 16 10.00 Overcast OVC011 64 60.3 88% 29.85 0.0
23 09:55 NW 7 10.00 Overcast OVC013 64 60.8 89% 29.84 0.0
23 09:35 NW 13 G 17 10.00 Overcast OVC010 62.6 60.3 92% 29.84 0.0
23 09:15 NW 12 G 17 10.00 Overcast OVC010 62.1 60.4 94% 29.84 0.0
23 08:55 NW 9 10.00 Overcast BKN008 OVC013 62.1 61 96% 29.83 0.0
23 08:35 NW 10 3.00 Fog/Mist BKN008 OVC013 63 61.3 94% 29.82 0.0
23 08:15 NW 9 G 17 5.00 Fog/Mist OVC013 63 61 93% 29.81 0.0
23 07:55 NW 9 G 17 10.00 Overcast OVC015 63.7 61.7 93% 29.8 0.0
23 07:35 NW 12 G 16 10.00 Overcast OVC015 63.9 62.4 95% 29.79 0.0
23 07:15 NW 9 10.00 Overcast OVC015 63.7 62.6 96% 29.78 0.0
23 06:55 NW 13 G 16 10.00 Overcast SCT006 OVC013 63.7 62.8 68.9 63.7 97% 29.78 0.0
23 06:35 NW 12 G 18 2.00 Rain OVC011 64.8 63.7 96% 29.77 0.0
23 06:15 NW 9 G 17 10.00 Overcast OVC011 65.3 64 96% 29.76 0.0
23 05:55 NW 9 10.00 Overcast OVC013 65.7 64.4 96% 29.75 0.0
23 05:35 NW 7 10.00 Overcast OVC015 65.8 64.8 96% 29.74 0.0
23 05:15 W 8 10.00 Overcast OVC017 66.2 65.3 97% 29.74 0.0
23 04:55 NW 8 G 16 10.00 Overcast SCT010 OVC017 66.2 65.5 98% 29.73 0.0
23 04:35 NW 6 10.00 Overcast BKN013 OVC034 67.5 67.1 99% 29.72 0.0
23 04:15 NW 6 10.00 Overcast SCT015 OVC032 67.6 67.5 99% 29.72 0.0
23 03:55 W 7 7.00 Overcast SCT009 BKN030 OVC035 68 67.6 99% 29.72 0.0
23 03:35 W 8 10.00 Overcast SCT007 BKN017 OVC035 68.2 68 99% 29.72 0.0
23 03:15 W 6 7.00 Light Drizzle BKN013 BKN019 OVC028 68.4 68.2 99% 29.72 0.0
23 02:55 W 6 10.00 Light Drizzle SCT004 OVC013 68.5 68.5 100% 29.72 0.0
23 02:35 W 7 10.00 Rain SCT011 BKN014 OVC019 68.7 68.7 100% 29.72 0.0
23 02:15 W 6 10.00 Overcast SCT007 BKN014 OVC042 68.7 68.7 100% 29.72 0.0
23 01:55 W 3 10.00 Overcast SCT010 SCT042 OVC055 68.4 68.4 100% 29.72 0.0
23 01:35 W 3 10.00 Overcast SCT010 SCT024 OVC055 68 68 100% 29.72 0.0
23 01:15 Calm 10.00 Overcast BKN010 BKN020 OVC034 68 68 100% 29.72 0.0
23 00:55 Calm 10.00 Mostly Cloudy SCT004 SCT012 BKN025 68 68 71.1 67.5 100% 29.72 0.0 0.02
23 00:35 Calm 10.00 Partly Cloudy SCT017 SCT021 SCT050 67.6 67.5 99% 29.72 0.0
23 00:15 Calm 10.00 Mostly Cloudy BKN015 68.2 68 99% 29.72 0.0
22 23:55 NW 3 10.00 Overcast SCT008 OVC015 68.5 68.4 99% 29.72 0.0
22 23:35 Calm 10.00 Overcast BKN006 OVC010 68.9 68.5 99% 29.71 0.0
22 23:15 W 3 10.00 Overcast OVC008 68.9 68.5 99% 29.71 0.0
22 22:55 NW 3 10.00 Mostly Cloudy BKN006 BKN100 68.5 68.4 99% 29.7 0.0
22 22:35 NW 3 10.00 Mostly Cloudy SCT008 BKN011 BKN100 68.9 68.7 99% 29.7 0.0
22 22:15 NW 5 10.00 Mostly Cloudy BKN011 69.1 68.9 99% 29.7 0.0
22 21:55 NW 3 10.00 Fair CLR 69.3 68.9 99% 29.71 0.0 0.02
22 21:35 NW 3 10.00 Partly Cloudy SCT012 69.4 69.1 99% 29.7 0.0
22 21:15 Calm 10.00 Mostly Cloudy BKN012 69.8 69.4 99% 29.7 0.0
22 20:55 NW 5 10.00 Overcast SCT006 OVC014 70.2 69.8 99% 29.69 0.0
22 20:35 W 5 10.00 Overcast OVC010 70.7 70 98% 29.7 0.0
22 20:15 W 8 10.00 Overcast BKN008 OVC013 70.7 70.2 98% 29.7 0.0
22 19:55 Calm 10.00 Overcast BKN008 BKN055 OVC070 70.9 70.5 99% 29.68 0.0 0.02
22 19:35 E 5 10.00 Light Rain SCT010 SCT055 BKN110 70.7 70 98% 29.67 0.0 0.02
22 19:15 E 12 10.00 Thunderstorm Light Rain in Vicinity SCT020 BKN075 OVC110 70.7 69.8 97% 29.65 0.0 0.01
22 18:55 NE 6 G 20 10.00 Thunderstorm Light Rain in Vicinity SCT006 BKN010 OVC065 70.7 70 84.6 70.7 98% 29.7 0.0 0.23 0.99
22 18:35 N 14 G 21 10.00 Thunderstorm Light Rain BKN006 BKN010 OVC020 72.5 72 98% 29.71 0.0 0.22
22 18:15 Calm 2.50 Thunderstorm Rain SCT004 BKN019 OVC026 72.1 71.6 98% 29.71 0.0 0.21
22 17:55 N 6 1.50 Thunderstorm Heavy Rain SCT006 BKN015 OVC025 72.7 72.1 98% 29.71 0.0 0.51
22 17:35 Calm 10.00 Light Rain SCT025 BKN035 OVC044 73.8 73.2 98% 29.69 0.0 0.12
22 17:15 Calm 1.50 Heavy Rain SCT029 BKN040 OVC060 73.4 72.7 98% 29.71 0.0 0.11
22 16:55 SW 3 10.00 Light Rain SCT031 BKN037 OVC046 73.6 72.7 97% 29.74 0.0 0.23
22 16:35 W 6 2.50 Heavy Rain SCT008 BKN030 OVC050 74.3 73.2 96% 29.76 0.0 0.1
22 16:15 S 10 4.00 Light Rain SCT006 BKN012 OVC020 75.7 73.9 94% 75 29.75 0.0 0.03
22 15:55 SW 9 10.00 Light Rain SCT020 OVC030 78.4 75.2 90% 82 29.75 0.0
22 15:35 SW 12 10.00 Overcast SCT021 BKN029 OVC080 82.9 73.2 73% 89 29.75 0.0
22 15:15 W 9 10.00 Overcast SCT029 BKN034 OVC100 84 73 70% 90 29.75 0.0
22 14:55 W 8 10.00 Mostly Cloudy SCT029 SCT040 BKN046 83.8 72.9 70% 90 29.76 0.0
22 14:35 W 10 G 18 10.00 Partly Cloudy SCT055 SCT065 83.5 73 71% 90 29.77 0.0
22 14:15 W 10 10.00 Mostly Cloudy SCT018 SCT025 BKN031 81.7 73 75% 87 29.77 0.0
22 13:55 SW 7 10.00 Overcast BKN020 OVC029 80.2 74.3 82% 85 29.78 0.0
22 13:35 SW 10 G 18 10.00 Mostly Cloudy SCT022 SCT029 BKN043 80.6 73.2 78% 85 29.78 0.0
22 13:15 SW 9 10.00 Mostly Cloudy SCT018 SCT025 BKN046 80.6 74.3 81% 86 29.79 0.0
22 12:55 SW 12 G 16 10.00 Overcast BKN016 BKN024 OVC033 77.9 72.9 77.9 71.8 85% 80 29.8 0.0 0.27
22 12:35 W 12 10.00 Overcast BKN016 OVC021 76.6 72.7 88% 78 29.81 0.0
22 12:15 SW 13 G 16 10.00 Overcast OVC016 76.3 72.3 88% 77 29.8 0.0
22 11:55 SW 13 10.00 Overcast OVC014 75.7 72.5 90% 76 29.81 0.0
22 11:35 SW 9 10.00 Overcast SCT012 BKN017 OVC030 74.7 71.8 91% 29.82 0.0
22 11:15 SW 8 10.00 Overcast SCT012 BKN023 OVC041 74.1 71.8 92% 29.82 0.0
22 10:55 SW 14 G 20 10.00 Overcast BKN012 BKN019 OVC046 74.7 71.8 91% 29.82 0.0
22 10:35 SW 14 G 23 10.00 Overcast BKN012 OVC019 74.1 72.1 94% 29.82 0.0
22 10:15 SW 16 G 23 10.00 Overcast BKN014 OVC018 74.1 72.7 95% 29.82 0.0
22 09:55 SW 15 G 22 7.00 Light Rain BKN014 BKN042 OVC090 72.9 72 97% 29.82 0.0 0.07 0.27
22 09:35 SW 12 G 16 4.00 Light Rain SCT012 BKN019 OVC065 72.7 71.8 97% 29.82 0.0 0.05
22 09:15 SW 13 G 17 7.00 Rain SCT010 BKN050 OVC065 73 72.3 98% 29.85 0.0 0.01
22 08:55 SW 10 7.00 Light Rain OVC013 72.7 72.1 98% 29.86 0.0 0.12
22 08:35 S 9 10.00 Rain SCT013 SCT030 OVC070 72.5 72 98% 29.86 0.0 0.11
22 08:15 S 12 3.00 Rain SCT017 BKN055 OVC070 72.5 71.8 98% 29.88 0.0 0.07
22 07:55 SW 9 4.00 Heavy Rain SCT026 BKN060 OVC070 72.5 71.6 97% 29.89 0.0 0.08
22 07:35 SW 6 10.00 Light Rain SCT037 BKN060 OVC070 72.5 71.6 97% 29.89 0.0 0.02
22 07:15 S 7 10.00 Light Rain SCT037 BKN055 OVC070 72 71.6 99% 29.88 0.0 0.01
22 06:55 S 6 10.00 Light Drizzle SCT009 BKN045 BKN055 71.8 71.2 71.8 70.3 98% 29.89 0.0 0.07
22 06:35 S 7 10.00 Light Drizzle BKN011 BKN049 OVC110 71.6 71.1 98% 29.89 0.0
22 06:15 S 5 10.00 Light Rain BKN009 BKN047 BKN070 71.6 71.1 98% 29.91 0.0
22 05:55 SE 3 10.00 Mostly Cloudy SCT009 BKN110 71.6 71.1 98% 29.91 0.0
22 05:35 SE 3 10.00 Mostly Cloudy SCT009 SCT012 BKN110 71.2 70.9 99% 29.92 0.0
22 05:15 SE 6 7.00 Mostly Cloudy SCT007 BKN110 71.2 70.9 99% 29.92 0.0
22 04:55 S 6 10.00 Mostly Cloudy BKN007 BKN038 71.4 70.9 98% 29.92 0.0 0.05
22 04:35 S 5 7.00 Overcast BKN007 OVC040 71.6 71.1 98% 29.93 0.0 0.05
22 04:15 SE 7 5.00 Light Rain OVC007 71.2 70.9 99% 29.93 0.0 0.05
22 03:55 S 5 7.00 Thunderstorm in Vicinity OVC007 71.1 70.7 99% 29.95 0.0 0.01 0.02
22 03:35 S 3 7.00 Light Rain BKN007 BKN032 OVC060 70.7 70.3 99% 29.97 0.0
22 03:15 S 6 7.00 Mostly Cloudy SCT007 SCT032 BKN046 70.7 70.2 98% 29.98 0.0
22 02:55 S 5 7.00 Partly Cloudy SCT007 SCT042 SCT065 70.7 70.2 98% 29.98 0.0 0.01
22 02:35 SE 6 10.00 NULL NULL 70.7 70.3 99% 29.97 0.0
22 02:15 SE 6 10.00 Mostly Cloudy SCT043 SCT055 BKN075 70.7 70.3 99% 29.98 0.0
22 01:55 SE 3 10.00 Mostly Cloudy SCT075 BKN100 70.5 70.2 99% 29.99 0.0
22 01:35 SE 6 10.00 Mostly Cloudy SCT065 BKN100 70.7 70.2 98% 29.99 0.0
22 01:15 Calm 10.00 Mostly Cloudy SCT065 BKN090 70.3 70 99% 30.01 0.0
22 00:55 SE 3 10.00 Mostly Cloudy SCT065 BKN090 70.3 70 99% 30.02 0.0
22 00:35 SE 5 10.00 Partly Cloudy SCT090 70.2 70 99% 30.02 0.0
22 00:15 E 3 10.00 Overcast OVC090 70.3 70 99% 30.03 0.0
21 23:55 Calm 10.00 Overcast OVC090 70.3 70.2 99% 30.04 0.0
21 23:35 SE 5 10.00 Mostly Cloudy BKN100 BKN120 70 69.8 99% 30.04 0.0
21 23:15 Calm 10.00 Partly Cloudy SCT100 SCT120 69.8 69.8 100% 30.04 0.0
21 22:55 SE 3 10.00 Light Rain SCT046 SCT050 SCT065 69.8 69.4 99% 30.04 0.0 0.01
21 22:35 S 5 10.00 Light Rain SCT046 BKN075 OVC100 69.8 69.8 100% 30.04 0.0 0.01
21 22:15 S 6 10.00 Light Rain SCT047 SCT075 OVC100 69.8 69.8 100% 30.05 0.0 0.01
21 21:55 S 7 10.00 Light Rain BKN045 BKN070 OVC100 70 69.8 99% 30.06 0.0 0.1
21 21:35 SE 7 7.00 Rain BKN045 OVC070 70.3 70.2 99% 30.05 0.0 0.08
21 21:15 E 7 7.00 Rain SCT022 BKN045 OVC070 70.3 70.2 99% 30.06 0.0 0.03
21 20:55 E 8 5.00 Rain SCT005 BKN046 OVC075 70.2 70 99% 30.07 0.0 0.06
21 20:35 E 9 0.00 NULL NULL 70.2 69.8 99% 30.07 0.0 0.01
21 19:15 N 6 10.00 Light Rain OVC003 72.3 71.8 98% 30.09 0.0
21 18:55 NE 8 7.00 Light Rain OVC003 72.5 72 85.3 72.5 98% 30.09 0.0 1.14
21 18:35 NE 9 7.00 Overcast SCT003 BKN046 OVC075 72.7 72 98% 30.08 0.0
21 18:15 NE 6 10.00 Mostly Cloudy SCT003 SCT048 BKN080 73 72.5 98% 30.08 0.0
21 17:55 NE 3 10.00 Partly Cloudy SCT080 72.7 72 98% 30.07 0.0 0.02
21 17:35 E 7 10.00 Fair CLR 72.9 72 97% 30.08 0.0 0.02
21 17:15 E 3 7.00 Thunderstorm Light Rain in Vicinity SCT050 SCT070 BKN080 73.4 72.5 97% 30.09 0.0 0.02
21 16:55 Calm 4.00 Thunderstorm Light Rain in Vicinity SCT016 BKN055 OVC075 73.6 72.5 96% 30.09 0.0 0.38
21 16:35 SE 9 1.50 Thunderstorm Heavy Rain in Vicinity SCT010 BKN019 OVC041 74.5 73.2 96% 30.11 0.0 0.29
21 16:15 S 8 10.00 Mostly Cloudy SCT010 BKN039 BKN050 76.3 72.5 88% 77 30.12 0.0 0.01
21 15:55 SE 6 10.00 Fair CLR 79.3 75.2 87% 84 30.09 0.0 0.01 0.74
21 15:35 SE 8 10.00 Partly Cloudy SCT019 SCT026 SCT032 77.2 75.7 95% 78 30.1 0.0 0.01
21 15:15 SE 6 7.00 Thunderstorm Light Rain in Vicinity SCT009 BKN027 BKN050 74.8 73.9 97% 30.11 0.0 0.01
21 14:55 W 3 1.00 Thunderstorm Heavy Rain in Vicinity BKN010 BKN024 OVC055 75.2 73.8 95% 74 30.12 0.0 0.73
21 14:35 N 6 3.00 Overcast BKN024 BKN029 OVC055 79.2 74.5 86% 83 30.11 0.0 0.07
21 14:15 NE 6 10.00 Overcast BKN028 OVC035 84.2 74.8 74% 92 30.11 0.0
21 13:55 Calm 10.00 Overcast SCT025 BKN031 OVC035 85.1 74.1 70% 93 30.11 0.0
21 13:35 SW 3 10.00 Overcast BKN023 OVC032 82.9 74.3 75% 90 30.13 0.0
21 13:15 Calm 10.00 Overcast BKN021 BKN033 OVC049 82 73.6 76% 88 30.14 0.0
21 12:55 S 5 10.00 Mostly Cloudy SCT018 SCT024 BKN060 82.8 74.1 82.9 64.8 75% 89 30.14 0.0
21 12:35 S 3 10.00 Mostly Cloudy SCT016 SCT060 BKN070 80.8 73.4 78% 86 30.15 0.0
21 12:15 SE 5 7.00 Mostly Cloudy SCT012 SCT046 BKN060 79.7 72.9 80% 84 30.15 0.0
21 11:55 SE 7 7.00 Overcast BKN012 OVC060 77.5 72.5 85% 79 30.16 0.0
21 11:35 S 6 7.00 Overcast OVC008 76.3 72.7 89% 77 30.17 0.0
21 11:15 S 5 5.00 Fog/Mist OVC006 74.3 72.7 95% 30.17 0.0
21 10:55 SE 5 3.00 Fog/Mist OVC004 72.1 72 99% 30.18 0.0
21 10:35 SE 3 3.00 Fog/Mist OVC002 70.9 70.9 100% 30.19 0.0
21 10:20 SE 3 2.50 Fog/Mist OVC002 70.2 70.2 100% 30.19 0.0
21 09:55 Calm 1.75 Fog/Mist OVC002 69.8 69.8 100% 30.2 0.0
21 09:35 E 3 1.50 Fog/Mist OVC002 68.9 68.9 100% 30.21 0.0
21 09:15 Calm 1.50 Fog/Mist OVC002 68.5 68.5 100% 30.22 0.0
21 08:55 Calm 1.50 Fog/Mist OVC002 68.2 68.2 100% 30.22 0.0
21 08:35 E 3 1.50 Fog/Mist OVC002 67.5 67.5 100% 30.22 0.0
Date Time (cdt) Wind (mph) Vis. (mi.) Weather Sky Cond. Air Dwpt Max. Min. Relative Humidity Wind Chill (°F) Heat Index (°F) altimeter (in) sea level (mb) 1 hr 3 hr 6 hr
6 hour
Temperature (ºF) Pressure Precipitation (in)